Content
SEND FEEDBACK

Daily
Averages
Monthly
Summary
Canada

LONDON, ONTARIO


Home > North America > Canada > Ontario
Elevation: 912 feet     Latitude: 43 02N     Longitude: 081 09W

WEATHER
 
SELECT A DAY
Number of Records: 190,813;   Date Range: 1/1/95 - 7/10/14
 
SHARE

PRINT THIS DATA

[ ← Previous Day ]
WEATHER ALMANAC - FEBRUARY 16, 2014
[ Next Day → ]
[ °C ]   °F
Weather ElementAverageHighLow
Temperature8.9 °F17.6 °F (2:00 pm)-4 °F (2:00 am)
Dewpoint4.4 °F10.4 °F (12:00 pm)-7.6 °F (2:00 am)
Humidity81.4 %92 % (6:19 am)64 % (7:00 pm)
Barometer30.11 in30.38 in (11:00 pm)30.02 in (5:00 am)
Wind Speed4.8 mph11.5 mph (3:00 pm)
Weather ElementAverage
Visibility8.1 mi
Wind DirectionSSE (147.6 °)

Weather ElementTotal
Precipitation---
Heating Degree Days58.2 (Base 65)
Averaged from 41 records on February 16, 2014
WEATHER CONDITIONS BREAKOUT
WIND DIRECTION BREAKOUT
WEATHER BY HOUR - FEBRUARY 16, 2014
[ °C ]   °F
Local TimeTemperatureDewpointHumidityBarometerVisibilityWind DirectionWind SpeedGust SpeedPrecipitationEventsConditions
1:00 AM-2.0 °F-6.0 °F73 %30.08 in15.0 miNorth1.2 mph
1:00 AM-2.2 °F-5.8 °F85 %30.08 in15.0 miCalmPartly Cloudy
2:00 AM-4.0 °F-7.6 °F85 %30.07 in15.0 miCalmOvercast
3:00 AM-0.4 °F-4.0 °F85 %30.06 in15.0 miCalmOvercast
4:00 AM-0.4 °F-4.0 °F85 %30.03 in15.0 miEast (100°)3.5 mphOvercast
5:00 AM3.2 °F-0.4 °F85 %30.02 in15.0 miESE (110°)2.3 mphOvercast
6:00 AM6.8 °F3.2 °F85 %30.02 in15.0 miSouth (170°)2.3 mphOvercast
6:19 AM6.8 °F5.0 °F92 %30.02 in14.0 miVariable2.3 mphSnowLight Snow Showers
6:45 AM6.8 °F3.2 °F85 %30.03 in6.0 miENE (70°)3.5 mphSnowLight Snow Showers
7:00 AM6.8 °F3.2 °F85 %30.03 in2.0 miENE (70°)5.8 mphSnowLight Snow Showers
7:00 AM7.0 °F4.0 °F81 %30.03 in2.0 miENE (70°)5.8 mphOvercast
7:08 AM6.8 °F3.2 °F85 %30.03 in1.8 miENE (70°)6.9 mphSnowLight Snow Showers
7:27 AM6.8 °F3.2 °F85 %30.04 in0.8 miENE (60°)4.6 mphSnowLight Snow Showers
7:36 AM6.8 °F5.0 °F92 %30.04 in1.0 miNE (50°)2.3 mphSnowLight Snow Showers
8:00 AM8.6 °F5.0 °F85 %30.05 in1.0 miVariable2.3 mphSnowLight Snow Showers
8:52 AM8.6 °F6.8 °F92 %30.06 in1.0 miENE (70°)3.5 mphSnowLight Snow Showers
9:00 AM8.6 °F6.8 °F92 %30.06 in1.0 miENE (70°)3.5 mphSnowLight Snow Showers
9:31 AM10.4 °F6.8 °F85 %30.06 in1.5 miENE (70°)4.6 mphSnowLight Snow Showers
9:47 AM10.4 °F6.8 °F85 %30.06 in1.8 miENE (60°)5.8 mphSnowLight Snow Showers
10:00 AM10.4 °F8.6 °F92 %30.07 in1.5 miENE (70°)4.6 mphSnowLight Snow Showers
10:32 AM12.2 °F8.6 °F85 %30.07 in2.2 miENE (60°)5.8 mphSnowLight Snow Showers
11:00 AM14.0 °F8.6 °F79 %30.08 in2.5 miENE (70°)5.8 mphSnowLight Snow Showers
11:28 AM14.0 °F8.6 °F79 %30.08 in2.5 miENE (70°)5.8 mphSnowLight Snow Showers
11:41 AM14.0 °F8.6 °F79 %30.09 in2.5 miENE (60°)3.5 mphSnowLight Snow Showers
12:00 PM14.0 °F10.4 °F86 %30.09 in2.2 miENE (70°)3.5 mphSnowLight Snow Showers
12:39 PM14.0 °F10.4 °F86 %30.08 in3.0 miESE (110°)3.5 mphSnowLight Snow Showers
1:00 PM15.8 °F10.4 °F79 %30.07 in8.0 miSSE (160°)3.5 mphSnowLight Snow Showers
1:00 PM15.0 °F10.0 °F74 %30.08 in7.0 miSSE (150°)3.5 mphOvercast
2:00 PM17.6 °F10.4 °F73 %30.08 in8.0 miNW (320°)3.5 mphSnowLight Snow
2:47 PM17.6 °F10.4 °F73 %30.09 in2.5 miNW (320°)10.4 mphSnowLight Snow
3:00 PM17.6 °F10.4 °F73 %30.09 in5.0 miNW (320°)11.5 mphSnowLight Snow
4:00 PM17.6 °F8.6 °F68 %30.13 in10.0 miNW (320°)11.5 mphSnowLight Snow
4:08 PM15.8 °F8.6 °F73 %30.14 in15.0 miNNW (340°)11.5 mphPartly Cloudy
5:00 PM15.8 °F6.8 °F68 %30.17 in15.0 miNNW (340°)9.2 mphPartly Cloudy
6:00 PM12.2 °F5.0 °F73 %30.22 in15.0 miNW (320°)4.6 mphPartly Cloudy
7:00 PM10.0 °F4.0 °F64 %30.27 in15.0 miNW (310°)5.8 mph
7:00 PM10.4 °F3.2 °F73 %30.26 in15.0 miNW (310°)5.8 mphClear
8:00 PM6.8 °F1.4 °F79 %30.29 in15.0 miNW (320°)8.1 mphClear
9:00 PM3.2 °F-0.4 °F85 %30.34 in15.0 miNW (320°)6.9 mphClear
10:00 PM1.4 °F-2.2 °F85 %30.37 in15.0 miNNW (330°)4.6 mphClear
11:00 PM-0.4 °F-4.0 °F85 %30.38 in15.0 miNW (320°)4.6 mphClear
Hourly data recorded from CYXU, located miles away from London, Ontario







STORIES FROM OUR PARTNERS